Tracking 28794 objects as of 19-Apr-2024
HD Live streaming from Space Station
objects crossing your sky now

THORAD AGENA D DEB

Track THORAD AGENA D DEB now!
10-day predictions


NORAD ID: 19351
Int'l Code: 1970-025PW
Perigee: 980.3 km
Apogee: 1,022.3 km
Inclination: 100.1 °
Period: 105.0 minutes
Semi major axis: 7372 km
RCS: 0.0085 m2 (small)
Launch date: April 8, 1970
Source: United States (US)
Launch site: AIR FORCE WESTERN TEST RANGE (AFWTR)

Note: This is SATELLITE DEBRIS
Your satellite tracking list
Your tracking list is empty




NASA's NSSDC Master Catalog

Two Line Element Set (TLE):
1 19351U 70025PW  24109.42145584  .00001141  00000-0  13177-2 0  9990
2 19351 100.1022 264.0527 0028498  44.0810 339.8345 13.71507685822393
Source of the keplerian elements: AFSPC